Vorticity
6 1 6 6 3 4 5 5 4 4 4 4 4 4 4 4 4 4 3 3 3 3 3 3 3 3 3 3 3 3 3 4 4 5 5 6 6 6 6 6 8 6 5
2 6 6 6 6 6 6 7 5 4 4 4 4 4 4 4 3 3 3 3 3 3 3 3 3 3 3 3 4 4 4 5 5 6 6 7 7 7 7 7 7 7 7
2 4 4 5 6 7 7 8 6 4 4 4 4 5 4 4 3 3 3 3 3 3 3 3 3 3 4 4 4 5 5 5 5 6 6 8 8 7 8 8 7 7 7
2 3 3 4 7 13 10 8 8 7 5 4 4 4 5 5 4 4 3 3 3 3 4 4 5 4 5 5 5 5 5 5 6 6 6 7 7 7 7 7 7 8 8
3 5 3 4 7 9 12 10 8 7 6 5 5 5 5 5 5 5 4 5 5 5 5 5 5 5 5 5 5 5 6 5 5 6 6 7 8 7 7 7 6 6 7
4 5 4 4 8 10 9 4 6 7 6 5 5 5 5 5 5 5 5 5 4 5 5 5 5 5 5 5 5 6 5 5 5 5 5 7 8 7 6 6 6 6 6
5 4 3 4 7 8 8 6 4 3 5 7 7 5 5 5 5 5 5 5 5 5 5 4 6 6 6 6 5 4 5 5 5 6 6 7 7 8 7 7 7 7 8
4 4 4 5 6 7 7 7 7 8 7 6 7 6 6 5 5 4 4 5 4 4 5 6 6 6 6 6 5 6 6 5 6 6 7 7 7 7 7 7 7 8 8
4 5 4 4 6 7 7 9 8 8 8 7 6 7 7 6 5 5 5 5 5 4 5 5 5 5 6 6 6 6 6 7 6 6 7 7 7 7 8 10 9 7 6
5 4 4 6 7 6 6 8 9 9 7 7 5 5 8 8 6 6 6 6 6 5 4 4 5 6 7 7 6 7 6 6 7 6 7 7 7 9 8 5 3 4 4
5 6 4 6 6 6 8 10 11 10 8 6 8 5 3 5 6 7 7 6 5 5 6 5 6 6 7 7 7 7 6 7 5 6 7 8 10 8 5 4 3 2 9
5 5 4 7 5 7 9 11 10 10 11 10 6 7 8 7 7 6 7 7 6 6 6 7 6 7 7 7 7 7 7 7 8 8 8 11 6 4 4 4 5 6 4
5 7 5 7 5 9 8 9 10 9 10 12 12 11 9 8 7 8 8 8 7 7 8 7 8 8 7 6 7 7 8 9 8 11 10 4 3 3 5 1 9 6 1
11 4 9 6 7 6 5 6 8 9 7 8 8 9 9 8 8 8 9 8 9 10 9 9 8 8 7 7 9 8 9 9 8 5 4 2 3 1 5 5 -1 8 9
8 7 4 6 7 4 4 4 4 6 8 9 9 8 9 10 10 11 11 10 11 10 9 11 11 9 7 9 8 6 7 7 3 4 3 1 1 6 6 10 -1 4 12
9 6 3 8 5 4 3 4 5 5 5 7 8 9 8 8 8 9 9 7 6 6 6 8 6 8 7 8 9 7 5 4 2 4 2 8 7 8 8 8 6 2 4
6 9 5 8 6 4 4 5 2 6 5 4 5 8 9 9 8 6 5 5 6 5 5 8 9 10 8 5 3 3 2 -3 6 9 8 7 2 9 8 6 7 5 3
9 5 5 1 12 10 5 8 5 5 1 1 1 10 8 7 6 4 3 4 4 4 5 6 11 14 8 0 4 3 5 2 0 4 9 0 -1 16 12 4 5 2 16
6 8 6 5 6 10 9 9 7 8 -1 26 3 3 8 6 3 2 2 2 0 4 3 5 6 5 2 9 -6 33 25 -10 29 17 6 1 12 10 6 6 4 11 12
8 8 8 9 6 11 5 1 9 10 11 20 27 -11 12 -4 -9 2 -1 -5 3 3 7 3 -4 -5 18 0 -12 11 -3 14 8 6 17 -7 6 3 6 7 7 14 9
8 10 7 8 8 1 5 5 -6 9 23 11 7 24 -8 -6 -3 -6 -4 3 6 8 9 18 0 0 2 14 3 4 6 33 -2 -6 20 10 14 0 10 24 18 9 7
7 5 6 7 11 2 11 -1 13 6 14 5 9 15 31 20 10 4 3 5 6 2 -6 18 19 0 21 -14 18 3 17 17 -1 6 15 -6 3 6 15 10 9 8 7
7 5 8 7 4 9 4 7 16 10 15 23 25 19 6 4 -1 3 5 4 7 4 -6 1 7 3 7 4 14 -3 21 7 29 4 17 3 10 17 10 8 7 8 7
6 6 6 17 19 2 11 9 5 0 6 0 5 6 2 6 -2 7 6 23 -16 17 0 23 13 2 26 11 6 7 16 29 -13 5 22 15 13 9 8 8 9 11 11
6 3 5 5 16 23 15 13 8 14 2 11 4 3 16 3 9 6 1 -4 -12 14 -15 -2 22 17 1 1 11 4 -2 4 22 15 10 9 9 8 5 6 12 13 15
6 9 5 1 2 4 15 7 14 3 3 3 2 19 -2 9 -3 8 -3 -6 19 -21 6 7 17 9 10 7 -2 5 26 14 9 10 9 9 8 7 10 13 13 9 6
Height
3155 3157 3160 3161 3164 3166 3168 3171 3172 3174 3176 3177 3179 3181 3183 3184 3185 3187 3188 3188 3189 3189 3190 3190 3189 3189 3188 3188 3187 3186 3185 3184 3183 3182 3180 3178 3177 3175 3173 3171 3170 3168 3166
3152 3154 3157 3159 3160 3162 3164 3167 3170 3172 3174 3176 3178 3179 3182 3184 3184 3185 3186 3187 3188 3188 3189 3189 3188 3188 3187 3187 3186 3185 3183 3182 3181 3180 3178 3176 3175 3173 3171 3169 3167 3165 3163
3148 3151 3154 3156 3158 3159 3161 3165 3167 3169 3172 3174 3176 3178 3179 3182 3183 3183 3185 3186 3186 3186 3187 3187 3187 3186 3186 3185 3184 3183 3182 3180 3179 3177 3176 3174 3172 3169 3168 3166 3163 3162 3160
3144 3147 3151 3153 3155 3156 3159 3162 3165 3168 3169 3171 3174 3175 3177 3178 3180 3182 3183 3183 3184 3184 3184 3184 3184 3184 3183 3182 3181 3180 3179 3178 3176 3175 3173 3170 3168 3166 3165 3163 3160 3158 3156
3140 3142 3146 3149 3151 3153 3156 3159 3161 3164 3166 3168 3170 3172 3174 3176 3177 3178 3179 3181 3181 3181 3182 3182 3182 3181 3180 3179 3178 3177 3176 3175 3173 3172 3170 3167 3165 3163 3161 3159 3157 3155 3152
3134 3138 3142 3144 3146 3149 3152 3155 3158 3160 3163 3165 3167 3169 3170 3172 3174 3175 3176 3177 3178 3179 3179 3179 3178 3177 3177 3176 3175 3174 3173 3171 3170 3168 3166 3164 3162 3160 3158 3156 3153 3151 3148
3130 3133 3137 3140 3142 3145 3148 3151 3153 3156 3159 3161 3163 3164 3167 3168 3170 3172 3172 3173 3174 3174 3174 3175 3175 3174 3173 3172 3171 3170 3169 3167 3166 3164 3162 3160 3158 3156 3153 3151 3149 3146 3144
3125 3128 3131 3136 3138 3139 3142 3145 3149 3152 3154 3157 3159 3160 3162 3165 3167 3168 3169 3169 3170 3171 3171 3171 3170 3170 3169 3168 3167 3165 3164 3163 3162 3160 3159 3157 3154 3151 3150 3147 3145 3142 3140
3119 3123 3128 3132 3134 3135 3137 3141 3144 3147 3150 3152 3154 3157 3158 3160 3162 3164 3165 3165 3166 3166 3166 3166 3165 3165 3164 3163 3162 3161 3160 3159 3158 3156 3154 3151 3149 3147 3145 3143 3140 3138 3136
3113 3118 3123 3128 3130 3131 3133 3136 3139 3142 3144 3147 3148 3151 3154 3155 3157 3159 3161 3161 3161 3161 3161 3161 3160 3160 3160 3159 3158 3157 3156 3154 3152 3150 3148 3146 3143 3142 3139 3137 3136 3134 3131
3106 3112 3117 3122 3125 3127 3128 3130 3134 3137 3139 3142 3144 3146 3148 3150 3152 3154 3155 3156 3156 3156 3155 3156 3155 3155 3155 3154 3152 3151 3150 3148 3146 3144 3143 3140 3138 3137 3135 3133 3131 3128 3125
3100 3106 3110 3116 3119 3122 3125 3125 3129 3131 3134 3137 3138 3141 3143 3145 3146 3148 3149 3150 3151 3152 3151 3150 3149 3150 3149 3148 3147 3145 3144 3142 3140 3138 3136 3134 3132 3131 3129 3126 3123 3120 3118
3095 3101 3105 3111 3114 3117 3119 3120 3124 3126 3129 3131 3134 3136 3138 3139 3141 3143 3143 3144 3145 3146 3146 3145 3144 3144 3143 3142 3140 3138 3137 3135 3133 3131 3129 3128 3126 3124 3122 3119 3117 3114 3111
3090 3096 3100 3105 3108 3112 3114 3116 3119 3121 3123 3126 3129 3131 3133 3134 3135 3136 3138 3139 3140 3140 3141 3140 3138 3138 3136 3135 3134 3133 3130 3129 3127 3125 3124 3121 3120 3117 3114 3112 3109 3107 3103
3085 3090 3094 3098 3102 3106 3108 3111 3114 3116 3118 3121 3123 3125 3127 3129 3129 3131 3132 3133 3134 3135 3136 3136 3135 3132 3130 3129 3128 3127 3125 3124 3122 3120 3118 3115 3113 3110 3107 3104 3101 3098 3095
3078 3083 3089 3092 3095 3099 3103 3105 3108 3111 3113 3116 3118 3119 3121 3122 3123 3124 3125 3127 3128 3128 3129 3131 3130 3127 3125 3124 3122 3121 3120 3119 3116 3114 3111 3109 3106 3102 3098 3095 3093 3090 3086
3072 3077 3083 3086 3089 3093 3096 3098 3103 3105 3108 3110 3111 3113 3115 3116 3118 3119 3120 3120 3122 3121 3123 3126 3125 3123 3121 3120 3118 3115 3112 3111 3109 3107 3103 3100 3097 3094 3091 3087 3084 3080 3076
3066 3071 3075 3079 3083 3086 3089 3092 3096 3098 3100 3103 3105 3105 3108 3109 3112 3114 3113 3115 3116 3115 3114 3115 3117 3117 3115 3114 3111 3108 3104 3102 3099 3097 3093 3091 3088 3086 3082 3078 3073 3068 3064
3058 3064 3068 3072 3075 3078 3081 3085 3088 3090 3092 3094 3097 3100 3102 3102 3105 3108 3107 3108 3109 3108 3106 3105 3108 3108 3107 3105 3102 3098 3095 3093 3090 3087 3084 3081 3079 3075 3071 3067 3063 3059 3055
3051 3056 3061 3064 3068 3071 3074 3077 3079 3081 3083 3084 3087 3092 3094 3094 3098 3099 3099 3100 3102 3101 3100 3097 3096 3097 3096 3093 3094 3090 3087 3084 3081 3079 3074 3071 3070 3066 3062 3056 3053 3049 3045
3044 3049 3052 3056 3060 3062 3066 3068 3070 3074 3075 3077 3080 3082 3084 3086 3089 3090 3091 3092 3092 3092 3092 3090 3087 3086 3084 3082 3080 3078 3076 3074 3071 3069 3064 3058 3058 3055 3051 3046 3043 3038 3034
3036 3039 3043 3047 3051 3055 3059 3061 3063 3066 3068 3069 3071 3072 3073 3075 3079 3081 3082 3083 3085 3083 3081 3079 3079 3077 3075 3073 3072 3067 3064 3062 3060 3057 3052 3051 3047 3045 3041 3037 3033 3029 3023
3028 3031 3035 3039 3042 3046 3051 3054 3056 3057 3059 3060 3062 3064 3065 3068 3070 3071 3072 3072 3073 3072 3072 3071 3069 3067 3065 3063 3060 3057 3054 3051 3048 3046 3045 3041 3038 3034 3031 3027 3023 3018 3013
3019 3023 3028 3031 3034 3038 3043 3046 3048 3049 3051 3053 3055 3057 3058 3060 3060 3060 3059 3058 3058 3060 3061 3057 3058 3056 3054 3051 3051 3048 3044 3041 3039 3035 3032 3031 3029 3026 3022 3017 3014 3008 3002
3010 3015 3019 3023 3026 3029 3033 3037 3040 3041 3043 3046 3049 3050 3050 3048 3049 3047 3049 3046 3044 3047 3045 3047 3045 3042 3041 3039 3040 3038 3035 3033 3029 3025 3022 3019 3017 3014 3012 3007 3002 2997 2992
3002 3006 3010 3015 3018 3020 3023 3027 3030 3032 3035 3037 3039 3039 3039 3037 3038 3039 3041 3041 3039 3035 3035 3033 3029 3029 3029 3029 3027 3025 3023 3021 3020 3015 3013 3010 3007 3002 2999 2998 2994 2988 2983